Location: ??????
(38.1303°N, 24.0039°E)
Time: 03:10:49
(UTC+00:00)

ASTEX 1 - Pass Details

Date: 20 June 2021
Orbit: 721 x 742 km, 92.7° (Epoch: 05 August)

Event Time Altitude Azimuth Distance (km) Brightness Sun altitude
Exits shadow 01:38:23 14° 190° (S) 1,967 5.1 -13.6°
Maximum altitude 01:42:32 56° 266° (W) 870 3.5 -13.0°
Drops below altitude 10° 01:47:24 10° 345° (NNW) 2,237 6.3 -12.3°
Sets 01:49:45 0° 350° (N) 3,159 7.2 -12.0°
